CAS-2T & KS-1Q (41847 NORAD) Tracking and Keplerian Element Data

This shows tracking and keplerian element data for the satellite.

Feedback or suggestion? Click here.




ElementValue
Catalog41847
NameCAS-2T & KS-1Q
Epoch Orbit41644
Epoch Day286.81432316
Epoch Year2024
RAAN357.2343
Inclination98.4498
Eccentricity0.0351349
Argument of Perigee182.7467
Mean Anonmoly177.1802
Mean Motion14.42045361
Decay Rate5.629E-05
L11 41847U 16066G 24286.81432316 .00005629 00000+0 81865-3 0 9995
L22 41847 98.4498 357.2343 0351349 182.7467 177.1802 14.42045361416440



Live tracking and technical data element details for CAS-2T & KS-1Q (NORAD 41847). CAS-2T & KS-1Q can be tracked NOW for your location showing map with azimuth and elevation plus other details from your city location.







IsCatalogInMostPopularTable: catalog: 41847, numindb: 495
Update: records affected: 1



GetName: 41847 CAS-2T & KS-1Q

Hit Count: updated at: Thu, 23 Jan 2025 16:02:35 GMT